{"data":{"norad_id":63005,"epoch":"2026-05-25T03:41:04.869312Z","epoch_age_seconds":64808,"freshness":"FRESH","line1":"1 63005U 25032A   26145.15352858  .00170535  00000+0  12984-2 0  9997","line2":"2 63005  43.0007  94.0794 0001774 247.2326 112.8354 15.70968367 74252","mean_motion":15.70968367,"eccentricity":0.0001774,"inclination_deg":43.0007,"raan_deg":94.0794,"arg_perigee_deg":247.2326,"mean_anomaly_deg":112.8354,"bstar":0.0012984,"rev_number":7425,"period_min":91.663207881766,"perigee_km":354.9335309971,"apogee_km":357.32284828638,"semimajor_km":6734.2651896417,"source":"CELESTRAK","updated_at":"2026-05-25T13:38:19.834627Z"}}